Simultaneous Nadir Overpasses (SNOs) Predictions

Prediction of SNOs between NOAA-19 and TERRA Satellite Orbit:

Table of predicted SNOs for the next 14.0 days since TLE Epoch: 6/8/2013
Index Date (NOAA-19) Time (NOAA-19) Lat,Lon (NOAA-19) SZA (NOAA-19 ) Date (TERRA) Time (TERRA) Lat,Lon (TERRA) SZA (TERRA ) Distance(km) Time Diff (sec)
1 06/09/2013 18:16:14 -70.36, 84.66 132.73 06/09/2013 18:17:22 -70.22, 86.70 132.87 78.21 68
2 06/09/2013 19:07:02 69.45,-106.71 46.35 06/09/2013 19:07:01 69.46,-106.71 46.36 1.38 1
3 06/09/2013 19:57:50 -68.87, 61.37 134.23 06/09/2013 19:56:39 -68.90, 60.20 134.20 47.01 71
4 06/11/2013 23:00:32 -70.26, 13.75 132.98 06/11/2013 23:01:41 -70.16, 15.54 133.09 68.63 69
5 06/11/2013 23:51:21 69.43,-177.75 46.18 06/11/2013 23:51:19 69.45,-177.79 46.20 2.68 2
6 06/12/2013 00:42:08 -68.77, -9.56 134.49 06/12/2013 00:40:58 -68.85, -10.95 134.42 56.33 70
7 06/14/2013 03:44:51 -70.22, -57.26 133.14 06/14/2013 03:46:00 -70.10, -55.63 133.28 63.43 69
8 06/14/2013 04:35:40 69.43, 111.19 46.05 06/14/2013 04:35:37 69.44, 111.11 46.06 3.09 3
9 06/14/2013 05:26:27 -68.73, -80.58 134.65 06/14/2013 05:25:17 -68.78, -82.11 134.61 61.84 70
10 06/16/2013 08:29:09 -70.14,-128.20 133.32 06/16/2013 08:30:19 -70.02,-126.81 133.45 54.56 70
11 06/16/2013 09:20:00 69.49, 40.04 46.02 06/16/2013 09:19:54 69.47, 40.08 46.00 2.58 6
12 06/16/2013 10:10:45 -68.65,-151.53 134.82 06/16/2013 10:09:36 -68.70,-153.28 134.77 70.82 69
13 06/18/2013 13:13:27 -70.07, 160.85 133.45 06/18/2013 13:14:38 -69.93, 162.00 133.59 46.36 71
14 06/18/2013 14:04:19 69.50, -31.04 45.98 06/18/2013 14:04:11 69.49, -30.97 45.96 3.23 8
15 06/18/2013 14:55:03 -68.58, 137.50 134.95 06/18/2013 14:53:55 -68.61, 135.54 134.91 79.72 68
16 06/20/2013 17:57:45 -70.01, 89.88 133.54 06/20/2013 17:58:56 -69.89, 90.86 133.66 39.68 71
17 06/20/2013 18:48:37 69.47,-102.06 45.92 06/20/2013 18:48:29 69.44,-102.10 45.89 3.18 8




NCC Satellite Simultaneous Nadir Overpasses (SNOs) Prediction Service
